Regional Weather Roundup
Issued by NWS Cleveland, OH

Home | Current Version | Previous Version | Text Only | Print | Product List | Glossary Off
Versions: 1 2 3 4 5 6 7 8 9 10 11 12 13 14 15 16 17 18 19 20 21 22 23 24 25 26 27 28 29 30 31 32 33 34 35 36 37 38 39 40 41 42 43 44 45 46 47 48 49 50

000
ASUS41 KCLE 221900
RWRCLE
OHIO REGIONAL WEATHER ROUNDUP
NATIONAL WEATHER SERVICE WILMINGTON, OH
300 PM EDT SUN OCT 22 2017

NOTE: "FAIR" INDICATES FEW OR NO CLOUDS BELOW 12,000 FEET WITH NO
SIGNIFICANT WEATHER AND/OR OBSTRUCTIONS TO VISIBILITY.

OHZ001>008-015>018-024>027-034-035-043-044-222000-
   NORTHWEST OHIO

CITY           SKY/WX    TMP DP  RH WIND       PRES   REMARKS
DEFIANCE       FAIR      78  54  43 S16       30.05F
FINDLAY        FAIR      80  54  40 S14G23    30.08F
TOLEDO EXPRESS FAIR      79  58  48 S15G23    30.07F
TOLEDO EXEC    FAIR      80  56  43 S18       30.08F
LIMA           FAIR      76  55  48 S17       30.09F
$$

OHZ009>014-019>023-028>033-038-089-222000-
   NORTHEAST OHIO

CITY           SKY/WX    TMP DP  RH WIND       PRES   REMARKS
CLE-HOPKINS    PTSUNNY   78  53  41 S14       30.16F
CLE-LAKEFRONT  FAIR      75  48  38 S10       30.14F
CUY CO. ARPT   MOSUNNY   77  52  41 S16       30.17F
LORAIN-ELYRIA  FAIR      76  51  41 SW10G22   30.14F
ASHTABULA      FAIR      75  49  39 S10       30.19F
AKRON-CANTON   PTSUNNY   76  50  40 S12       30.19F
WOOSTER        NOT AVBL
MANSFIELD      FAIR      74  53  48 S16       30.15F
YOUNGSTOWN     PTSUNNY   75  50  41 VRB7      30.20F
$$

OHZ042-051>053-060>062-070>072-077>081-222000-
  SOUTHWEST OHIO

CITY           SKY/WX    TMP DP  RH WIND       PRES   REMARKS
CINC-COVINGTON PTSUNNY   74  57  55 S14       30.11F
CINC-LUNKEN    FAIR      75  56  51 S13       30.12F
HAMILTON       FAIR      77  55  46 VRB7G16   30.11F
DAYTON         NOT AVBL
WRIGHT-PAT AFB FAIR      77  52  42 S13       30.11F
DAYTON GENERAL FAIR      74  54  49 S13       30.11F
WILMINGTON     FAIR      75  51  43 S12       30.13F
$$

OHZ036-037-039>041-045>050-054>059-063>069-073>076-082>088-222000-
  CENTRAL AND SOUTHEAST OHIO

CITY           SKY/WX    TMP DP  RH WIND       PRES   REMARKS
COLUMBUS       PTSUNNY   77  53  43 S14G22    30.15F
OSU AIRPORT    FAIR      77  55  46 SE14      30.13F
BOLTON FIELD   SUNNY     77  54  44 S13G20    30.15F
RICKENBACK AFB FAIR      76  54  46 S12       30.14F
NEWARK         FAIR      77  50  38 S12       30.16F
MARION         FAIR      76  51  41 S15G30    30.13F
LANCASTER      FAIR      76  55  48 VRB7      30.17F
ZANESVILLE     FAIR      77  45  32 SE7       30.18F
NEW PHILLY     FAIR      77  51  40 S5        30.20F
$$



USA.gov is the U.S. government's official web portal to all federal, state and local government web resources and services.